Find Xingchi-1 02B

NORAD ID: 58498 Int'l Des: 2023-187 Owner: TYSK Country: CN operational
LEOCIRCULARRETROGRADESSO

Current View

Loading 3D Globe...

About Xingchi-1 02B

Description loading...

Upcoming Passes

Passes for default location (London). Set your location on the main map for personalized predictions.

Altitude History

Loading altitude history...

Two-Line Element Set

1 58498U 23187C 26159.19336709 .00001752 00000-0 20766-3 0 9995
2 58498 97.9293 243.3078 0011018 162.9928 197.1658 14.85788113135844
Epoch: Jun 8, 2026 • Age: 4 hours

Current Status

Altitude 618.5 km
Velocity 7.55 km/s
Sub-Earth Point -32.54°S, 29.25°E
Launch Date Dec 4, 2023
Age 2.5 years
Type other

Technical Details

Classification Payload
Mass 35.00 kg
Dry Mass 35.00 kg
Total Mass 35.00 kg
Length 0.30 m
Diameter 0.30 m
Span 1.00 m
Shape Box + 2 pan
Manufacturer WEINA
Bus Type MN35
Phase Status In Orbit
Owner/State TYSK/CN

Most Searched